Home > Weather > Aktau > Past weeks

Flag for Kazakhstan Past Weather in Aktau, Kazakhstan — Yesterday and Last 2 Weeks

Now
88 °F

Sunny.


Feels Like: 84 °F
Forecast: 72 / 90 °F
Wind: 13 mph from Northeast

Location: Aktau

Current Time: Jul 29, 2016 at 12:48:36 PM

Latest Report: Jul 29, 2016 at 12:00 PM


Visibility: 10 mi

Pressure: 29.92 "Hg

Humidity: 16%

Dew Point: 36 °F

Location of AktauLocation

Past Weather in Aktau — Graph

°F

Aktau Temperature Yesterday

Maximum temperature yesterday: 88 °F (at 6:30 PM)
Minimum temperature yesterday: 68 °F (at 3:00 AM)
Average temperature yesterday: 77 °F

High & Low Weather Summary for the Past Weeks

 TemperatureHumidityPressure
High104 °F (Jul 16, 1:00 PM)94% (Jul 26, 8:00 AM)30.04 "Hg (Jul 26, 8:00 AM)
Low64 °F (Jul 29, 4:30 AM)10% (Jul 18, 1:00 PM)29.59 "Hg (Jul 19, 12:30 PM)
Average82 °F43%29.81 "Hg
* Reported Jul 14 11:00 AM — Jul 29 11:30 AM, Aktau, Weather by CustomWeather, © 2016

Note: Actual official high and low records may vary slightly from our data, if they occured in-between our weather recording intervals... More about our weather records

Advertising

Aktau Weather History for the Previous 24 Hours

Scroll right to see more
 ConditionsComfort  
Time TempWeatherWind HumidityBarometerVisibility
11:30 AM
Fri, Jul 29
88 °FSunny.13 mph16%29.92 "Hg10 mi
11:00 AM86 °FPassing clouds.13 mph20%29.92 "HgN/A
10:30 AM84 °FSunny.13 mph27%29.92 "Hg10 mi
10:00 AM81 °FSunny.10 mph32%29.92 "Hg10 mi
9:30 AM79 °FSunny.10 mph37%29.92 "Hg10 mi
9:00 AM77 °FSunny.13 mph47%29.92 "Hg10 mi
8:30 AM73 °FSunny.10 mph57%29.92 "Hg10 mi
8:00 AM72 °FClear.10 mph61%29.92 "Hg10 mi
7:30 AM68 °FClear.8 mph69%29.92 "Hg10 mi
7:00 AM64 °FClear.6 mph78%29.92 "Hg10 mi
6:30 AM64 °FClear.6 mph78%29.92 "Hg10 mi
6:00 AM66 °FClear.8 mph73%29.89 "Hg10 mi
5:30 AM66 °FClear.6 mph68%29.89 "Hg10 mi
5:00 AM66 °FClear.8 mph68%29.89 "Hg10 mi
4:30 AM64 °FClear.3 mph68%29.89 "Hg10 mi
4:00 AM68 °FClear.8 mph60%29.89 "Hg10 mi
3:30 AM66 °FClear.8 mph60%29.89 "Hg10 mi
3:00 AM68 °FClear.8 mph56%29.89 "Hg10 mi
2:30 AM68 °FClear.6 mph53%29.89 "Hg10 mi
2:00 AM66 °FClear.6 mph56%29.89 "Hg10 mi
1:30 AM70 °FClear.8 mph46%29.89 "Hg10 mi
1:00 AM68 °FClear.6 mph49%29.89 "Hg10 mi
12:30 AM70 °FClear.6 mph43%29.89 "Hg10 mi
12:00 AM70 °FClear.8 mph43%29.89 "Hg10 mi
11:30 PM
Thu, Jul 28
72 °FClear.6 mph41%29.89 "Hg10 mi
11:00 PM73 °FSunny.8 mph36%29.89 "Hg10 mi
10:30 PM75 °FSunny.10 mph34%29.89 "Hg10 mi
10:00 PM77 °FSunny.10 mph34%29.89 "Hg10 mi
9:30 PM79 °FSunny.10 mph32%29.86 "Hg10 mi
9:00 PM81 °FSunny.17 mph30%29.86 "Hg10 mi
8:30 PM81 °FSunny.15 mph32%29.86 "Hg10 mi
8:00 PM82 °FSunny.17 mph32%29.86 "Hg10 mi
7:30 PM84 °FSunny.17 mph29%29.86 "Hg10 mi
7:00 PM86 °FSunny.15 mph27%29.83 "Hg10 mi
6:30 PM88 °FSunny.13 mph24%29.83 "Hg10 mi
6:00 PM82 °FSunny.13 mph35%29.83 "Hg10 mi
5:30 PM82 °FPassing clouds.17 mph35%29.86 "HgN/A
5:00 PM84 °FPassing clouds.17 mph33%29.86 "HgN/A
4:30 PM84 °FPassing clouds.17 mph29%29.86 "HgN/A
4:00 PM84 °FPassing clouds.20 mph25%29.86 "HgN/A
3:30 PM84 °FBroken clouds.17 mph29%29.86 "HgN/A
3:00 PM86 °FBroken clouds.17 mph29%29.86 "HgN/A
2:30 PM84 °FBroken clouds.17 mph31%29.86 "HgN/A
2:00 PM84 °FPartly sunny.17 mph31%29.86 "HgN/A
1:30 PM84 °FPartly sunny.13 mph29%29.89 "HgN/A
1:00 PM86 °FScattered clouds.6 mph25%29.89 "Hg6 mi
12:30 PM86 °FScattered clouds.10 mph27%29.89 "Hg6 mi
12:00 PM84 °FScattered clouds.8 mph27%29.89 "Hg6 mi
Weather by CustomWeather, © 2016

See weather overviewHow to use our weather pages